Showing default

SNAP-3 EDDIE, 40972

Orbit data source: Space-Track

SNAP-3 EDDIE, 40972 is a payload satellite owned by SMDC (US) in LEO that was launched on Thu, 08 Oct 2015 UTC via an ATLAS V 401 launch vehicle from the Air Force Western Test Range (AFWTR). Payload-class satellites include a variety of spacecraft equipped with specific instruments for various scientific and technological missions. These include communications satellites like Starlink; space stations such as the ISS; scientific satellites like the Hubble; Earth observation satellites from companies like Planet Labs, Umbra, and HawkEye 360; GPS; miniature CubeSats for education and research; and military/defense satellites.

Loading next visibility...
Identifier
40972, 2015-058J
Orbit
LEO
Country
Flag of USUS
Related business
Manufacturer
Duocomm Miltec
Mission
Operational Defense Communications
Bus & Motor
CUBESAT 3U, Unknown motor
Mass
5.3 kg wet, 4.5 kg dry
Launch date (UTC)
2015-10-08 (10 years ago)
Launch vehicle
ATLAS V 401
Launch site
Air Force Western Test Range (AFWTR)
Object type
Payload
Rocket body
Debris
Shape & HBR
Box + 8 Pan, 0.3 m
Radar Cross Section
0.085 m², Medium (>0.1 m² and < 1m²)

Expand to show TLE details & history
Last TLE update: 20 hours ago

TLE from 20 hours ago
0 SNAP-3 EDDIE
1 40972U 15058J   25286.50039781  .00045260  00000-0  15306-2 0  9991
2 40972  64.7545 205.4052 0063040 154.0973 206.3337 15.28446659 80973
Epoch: 2025-10-13T12:00Z
TLE epoch observation values (Epoch: 2025-10-13T12:00:34.370Z)
Latitude
-0.00006°
Longitude
2.95968°
Altitude
521.302 km
Speed
7.582 km/s
True Right ascension
13h 41m 37s
True Declination
0° 00' 00"
Sunlit
Object was in daylight at epoch
Visualization orbit readout
Latitude
Unknown
Longitude
Unknown
Altitude
Unknown
Speed
Unknown
Apparent Right ascension
Unknown
Apparent Declination
Unknown
Sunlit
N/A
Visualization observer readout
Local Sidereal Time
02:05:07
Azimuth
Unknown
Elevation
Unknown
Doppler factor
Unknown
Orbital elements
Apogee altitude
522.228 km
Perigee altitude
435.774 km
Semi-major axis
6,857.138 km
Eccentricity
0.0063
Inclination
64.7545°
RAAN
205.4052°
Arg. of periapsis
154.0973°
True anomaly
206.0155°
Mean anomaly
206.3337°
Eccentric anomaly
206.17438°
Mean motion
3.82234 °/min
Orbital period
94.18 mins
BSTAR
0.0015306
Loading maneuver chart data...
Computing Atmospheric mass density...
Loading historical data...
Loading historical data...
Loading historical data...
Loading historical data...
Loading historical data...
Loading historical data...
Loading historical data...

Documentation

Showing up to 5 results
|